Weather History for Marathon, FL

Change the Weather History Date:

Monday, May 13, 2013

  Actual Average Record
Temperature  
Mean Temperature 84 °F 81 °F  
Max Temperature 89 °F 86 °F 91 °F (2007)
Min Temperature 78 °F 76 °F 72 °F (2001)
Degree Days  
Heating Degree Days 0 0  
Month to date heating degree days 0 0  
Since 1 July heating degree days 36 81  
Cooling Degree Days 19 16  
Month to date cooling degree days 205 192  
Year to date cooling degree days 1503 1228  
Growing Degree Days 34 (Base 50)    
Moisture  
Dew Point 71 °F    
Average Humidity 65    
Maximum Humidity 74    
Minimum Humidity 55    
Precipitation  
Precipitation 0.00 in 0.13 in 0.13 in (2014)
Month to date precipitation 3.85 1.40  
Year to date precipitation 11.74 9.99  
Snow  
Snow 0.00 in - - ()
Month to date snowfall 0.0  
Since 1 July snowfall 0.0  
Snow Depth 0.00 in    
Sea Level Pressure  
Sea Level Pressure 30.07 in    
Wind  
Wind Speed 5 mph (NNW)    
Max Wind Speed 13 mph    
Max Gust Speed 20 mph    
Visibility 10 miles    
Events      
T = Trace of Precipitation, MM = Missing Value Source: NWS Daily Summary

Daily Weather History Graph

Daily Weather History Graph

Search for Another Location

Airport:

Trip Planner

Search our weather history database for the weather conditions in past years. The results will help you decide how hot, cold, wet, or windy it might be!

Date:

Astronomy

May. 13, 2013 Rise Set
Actual Time 6:41 AM EDT 8:00 PM EDT
Civil Twilight 6:16 AM EDT 8:24 PM EDT
Nautical Twilight 5:47 AM EDT 8:54 PM EDT
Astronomical Twilight 5:17 AM EDT 9:24 PM EDT
Moon 9:28 AM EDT (5/13) 11:07 PM EDT (5/13)
Length of Visible Light 14h 08m
Length of Day
13h 18m
Waxing Crescent, 12% of the Moon is Illuminated
May 13
Waxing Crescent
May 18
First Quarter
May 25
Full
May 31
Last Quarter
Jun 8
New

Hourly Weather History & Observations

Time (EDT) Temp. Heat Index Dew Point Humidity Pressure Visibility Wind Dir Wind Speed Gust Speed Precip Events Conditions
12:53 AM 82.0 °F 85.9 °F 70.0 °F 67% 30.05 in 10.0 mi North 3.5 mph - N/A   Scattered Clouds
1:53 AM 82.0 °F 85.9 °F 70.0 °F 67% 30.03 in 10.0 mi NNE 5.8 mph - N/A   Scattered Clouds
2:53 AM 82.0 °F 85.9 °F 70.0 °F 67% 30.02 in 10.0 mi NNE 4.6 mph - N/A   Partly Cloudy
3:53 AM 81.0 °F 84.4 °F 70.0 °F 69% 30.01 in 10.0 mi NNE 4.6 mph - N/A   Clear
4:53 AM 81.0 °F 84.1 °F 69.1 °F 67% 30.00 in 10.0 mi Calm Calm - N/A   Clear
5:53 AM 80.1 °F 82.9 °F 69.1 °F 69% 30.01 in 10.0 mi Calm Calm - N/A   Clear
6:53 AM 79.0 °F - 70.0 °F 74% 30.04 in 10.0 mi Calm Calm - N/A   Scattered Clouds
7:53 AM 82.9 °F 87.5 °F 71.1 °F 67% 30.05 in 10.0 mi East 3.5 mph - N/A   Clear
8:53 AM 84.0 °F 89.6 °F 72.0 °F 67% 30.07 in 10.0 mi Calm Calm - N/A   Mostly Cloudy
9:22 AM 86.0 °F 93.4 °F 73.4 °F 66% 30.08 in 10.0 mi Calm Calm - N/A   Scattered Clouds
9:45 AM 84.2 °F 89.6 °F 71.6 °F 66% 30.08 in 10.0 mi SE 4.6 mph - N/A   Mostly Cloudy
9:53 AM 84.0 °F 89.6 °F 72.0 °F 67% 30.09 in 10.0 mi Calm Calm - N/A   Overcast
10:53 AM 84.9 °F 90.7 °F 72.0 °F 65% 30.10 in 10.0 mi SSE 4.6 mph - N/A   Overcast
11:05 AM 86.0 °F 91.8 °F 71.6 °F 62% 30.10 in 10.0 mi Variable 3.5 mph - N/A   Mostly Cloudy
11:53 AM 87.1 °F 93.6 °F 72.0 °F 61% 30.11 in 10.0 mi Variable 3.5 mph - N/A   Mostly Cloudy
12:08 PM 87.8 °F 93.8 °F 71.6 °F 58% 30.11 in 10.0 mi Variable 4.6 mph - N/A   Mostly Cloudy
12:21 PM 87.8 °F 93.8 °F 71.6 °F 58% 30.11 in 10.0 mi Variable 4.6 mph - N/A   Mostly Cloudy
12:37 PM 86.0 °F 91.8 °F 71.6 °F 62% 30.10 in 10.0 mi Calm Calm - N/A   Mostly Cloudy
12:53 PM 84.9 °F 90.7 °F 72.0 °F 65% 30.10 in 10.0 mi SSW 3.5 mph - N/A   Overcast
1:53 PM 84.9 °F 90.7 °F 72.0 °F 65% 30.09 in 10.0 mi Calm Calm - N/A   Overcast
2:53 PM 88.0 °F 93.8 °F 71.1 °F 57% 30.08 in 10.0 mi NW 5.8 mph - N/A   Scattered Clouds
4:53 PM 87.1 °F 92.0 °F 70.0 °F 57% 30.06 in 10.0 mi NW 8.1 mph - N/A   Scattered Clouds
5:08 PM 84.2 °F 89.6 °F 71.6 °F 66% 30.06 in 10.0 mi NNW 6.9 mph - N/A   Mostly Cloudy
5:31 PM 84.2 °F 88.4 °F 69.8 °F 62% 30.06 in 10.0 mi NW 10.4 mph - N/A   Scattered Clouds
5:53 PM 84.9 °F 89.4 °F 70.0 °F 61% 30.06 in 10.0 mi NW 10.4 mph 16.1 mph N/A   Mostly Cloudy
6:15 PM 84.2 °F 88.4 °F 69.8 °F 62% 30.06 in 10.0 mi NNW 9.2 mph 16.1 mph N/A   Scattered Clouds
6:53 PM 84.0 °F 88.4 °F 70.0 °F 63% 30.06 in 10.0 mi NW 8.1 mph - N/A   Partly Cloudy
8:53 PM 82.0 °F 84.9 °F 68.0 °F 62% 30.07 in 10.0 mi NW 9.2 mph - N/A   Partly Cloudy
9:53 PM 82.0 °F 84.5 °F 66.9 °F 60% 30.08 in 10.0 mi NW 10.4 mph - N/A   Clear
10:53 PM 82.0 °F 84.5 °F 66.9 °F 60% 30.09 in 10.0 mi NW 10.4 mph - N/A   Clear
11:53 PM 81.0 °F 84.1 °F 69.1 °F 67% 30.09 in 10.0 mi NNW 11.5 mph 17.3 mph N/A   Clear